Date,TemperatureHighF,TemperatureAvgF,TemperatureLowF,DewpointHighF,DewpointAvgF,DewpointLowF,HumidityHigh,HumidityAvg,HumidityLow,PressureMaxIn,PressureMinIn,WindSpeedMaxMPH,WindSpeedAvgMPH,GustSpeedMaxMPH,PrecipitationSumIn
2013-10-1,76,61,52,63,56,51,97,85,55,30.16,30.05,5,1,7,0.00
2013-10-2,79,64,55,65,59,54,97,85,55,30.16,30.04,4,1,9,0.00
2013-10-3,78,66,59,66,61,57,95,84,59,30.12,30.03,6,1,11,0.00
2013-10-4,81,66,56,66,60,55,97,84,54,30.15,30.06,5,0,13,0.00
2013-10-5,82,67,58,67,61,56,97,83,54,30.12,29.99,8,1,12,0.01
2013-10-6,77,66,57,66,61,56,97,84,63,30.02,29.83,11,2,16,0.26
2013-10-7,69,60,51,63,56,50,95,88,58,29.98,29.78,6,1,11,0.55
2013-10-8,73,60,50,58,54,48,95,80,56,30.12,29.98,12,2,14,0.00
2013-10-9,75,60,48,62,54,47,95,81,60,30.16,30.05,6,1,10,0.00
2013-10-10,73,60,51,59,54,50,96,83,52,30.11,30.00,8,2,11,0.00
2013-10-11,76,59,50,60,53,48,97,83,48,30.06,29.95,7,1,11,0.01
2013-10-12,76,60,51,61,55,50,97,85,58,30.10,30.00,5,1,10,0.00
2013-10-13,56,54,52,55,52,50,96,96,94,30.15,30.11,2,0,3,0.00
2013-10-14,72,64,58,63,59,56,96,86,70,30.18,30.07,7,1,7,0.00
2013-10-15,68,61,54,60,57,52,95,85,71,30.13,30.01,8,2,12,0.00
2013-10-16,69,60,54,61,57,52,95,88,70,30.04,29.94,4,0,9,0.01
2013-10-17,68,62,58,65,60,56,96,93,87,29.95,29.84,5,0,9,0.30
2013-10-18,68,58,51,57,53,50,95,85,64,30.00,29.90,5,1,8,0.00
2013-10-19,62,56,49,55,52,46,95,87,68,29.96,29.89,11,1,12,0.00
2013-10-20,65,51,42,47,44,37,95,79,40,30.07,29.96,4,1,9,0.00
2013-10-21,69,52,39,53,46,38,97,82,50,30.14,30.00,5,1,7,0.00
2013-10-22,68,56,48,55,50,46,95,83,53,30.04,29.82,7,1,8,0.00
2013-10-23,52,47,39,48,40,33,95,76,56,30.07,29.79,14,4,21,0.00
2013-10-24,55,43,32,40,36,30,94,78,54,30.20,30.06,11,2,13,0.00
2013-10-25,52,41,28,38,29,22,91,66,32,30.37,30.20,10,3,14,0.00
2013-10-26,58,41,26,39,31,24,94,72,36,30.36,30.17,8,1,11,0.00
2013-10-27,61,53,42,52,45,38,91,75,64,30.18,30.09,5,1,6,0.00
2013-10-28,62,55,49,55,51,47,95,88,70,30.27,30.13,4,0,7,0.04
2013-10-29,67,55,49,56,51,48,96,87,60,30.34,30.24,5,1,8,0.00
2013-10-30,52,52,52,50,50,50,94,94,93,30.27,30.27,0,0,2,0.00
2013-10-31,68,66,64,61,60,58,86,80,76,29.96,29.77,17,4,17,0.01